Date,TemperatureHighF,TemperatureAvgF,TemperatureLowF,DewpointHighF,DewpointAvgF,DewpointLowF,HumidityHigh,HumidityAvg,HumidityLow,PressureMaxIn,PressureMinIn,WindSpeedMaxMPH,WindSpeedAvgMPH,GustSpeedMaxMPH,PrecipitationSumIn
2013-3-1,57.6,51.9,47.3,53.1,49.4,45.0,94,91,84,30.18,30.06,14,5,14,0.17
2013-3-2,54.7,47.4,38.7,50.2,43.8,34.1,94,87,78,30.07,29.89,14,4,14,0.04
2013-3-3,49.0,39.5,32.2,39.6,33.8,28.1,91,81,63,30.06,30.01,18,3,18,0.00
2013-3-4,56.9,38.2,27.2,40.0,31.2,24.9,95,78,45,30.04,29.67,13,2,13,0.01
2013-3-5,45.4,39.8,31.5,41.2,36.5,27.0,93,88,82,29.67,29.44,12,0,12,0.22
2013-3-6,44.3,42.0,40.5,41.3,39.8,38.4,95,92,88,29.67,29.33,0,0,0,0.34
2013-3-7,56.3,43.9,34.2,45.5,39.2,30.6,93,84,56,29.83,29.67,0,0,0,0.08
2013-3-8,50.9,39.9,32.0,42.4,35.8,29.5,95,86,70,29.99,29.82,0,0,0,0.00
2013-3-9,59.9,41.6,29.3,47.7,36.2,26.7,93,82,59,30.27,29.99,0,0,0,0.01
2013-3-10,46.3,40.4,32.4,43.4,37.4,28.5,92,89,84,30.26,30.17,0,0,0,0.06
2013-3-11,52.7,46.9,42.7,48.1,44.1,40.4,93,90,83,30.19,29.95,0,0,0,0.01
2013-3-12,54.4,51.0,48.1,50.5,47.7,45.7,94,89,83,29.95,29.88,18,1,18,0.03
2013-3-13,56.2,51.7,47.9,51.3,47.8,45.3,91,87,83,29.94,29.84,8,1,8,0.00
2013-3-14,55.1,50.2,47.3,50.2,46.7,44.8,96,88,74,29.93,29.79,23,3,23,0.07
2013-3-15,59.4,51.4,43.7,51.5,46.6,41.6,94,84,64,29.97,29.92,12,2,12,0.00
2013-3-16,50.0,45.8,39.2,45.2,41.7,35.0,90,86,71,29.92,29.74,14,3,14,0.21
2013-3-17,47.3,40.4,35.1,40.3,35.4,32.1,91,83,66,30.02,29.82,13,2,13,0.14
2013-3-18,53.8,42.1,34.4,43.7,35.8,29.3,91,79,50,30.00,29.96,12,2,12,0.07
2013-3-19,47.9,39.8,31.3,43.9,36.2,27.6,92,87,76,29.95,29.35,15,4,15,0.54
2013-3-20,50.4,45.6,36.7,48.1,41.5,33.1,93,86,76,29.86,29.18,22,2,22,1.51
2013-3-21,49.0,39.1,34.6,38.3,33.6,30.7,92,81,59,30.02,29.85,18,2,18,0.16
2013-3-22,43.9,36.4,31.3,37.3,32.1,28.5,91,85,67,30.13,30.01,15,2,15,0.09
2013-3-23,51.8,38.5,32.0,39.8,32.8,28.3,90,81,57,30.14,30.04,6,1,6,0.01
2013-3-24,56.3,42.4,33.7,41.4,35.0,29.8,89,76,53,30.04,29.85,6,1,6,0.00
2013-3-25,60.3,46.5,34.0,46.5,37.7,29.6,89,73,46,29.86,29.68,4,1,4,0.00
2013-3-26,58.9,50.3,42.5,46.9,43.5,38.9,88,78,61,29.76,29.71,5,1,5,0.02
2013-3-27,61.6,53.0,48.2,50.6,46.9,44.4,90,80,56,29.73,29.67,8,1,8,0.05
2013-3-28,62.5,53.0,48.6,52.7,48.0,45.1,91,84,62,29.90,29.75,10,1,10,0.22
2013-3-29,63.5,52.4,44.3,50.6,46.0,38.8,93,80,58,29.99,29.90,8,2,8,0.00
2013-3-30,67.5,51.6,37.8,49.9,42.5,33.9,91,73,48,29.99,29.79,13,3,13,0.00
2013-3-31,76.3,55.6,38.7,53.2,44.7,34.0,85,69,39,29.80,29.64,7,2,7,0.00